Submittal Forms
Current Contests
Recent Contests

Club Activity Tracker - The Villages Amateur Radio Club (from club selection on form)

Recent postings for the selected club or group are listed below. Other than the call used, all calls listed are only those associated with the club or group. Click on a call to see the details of the posting.
Status Key: new=new posting, update=update prior posting, move=change club/group, delete=delete prior posting.

Sort by   for past

TimestampCallContestClassPowerScoreStatus
2021-05-13 04:04:16W3USCWopsTSingle OpHP6,720new6421
2021-05-13 03:29:37K3ZGACWopsTSingle OpLP196new6421
2021-05-12 20:06:14W3USCWopsTSingle OpHP6,240new6420
2021-05-12 19:50:28W3GYMCWopsTSingle OpLP16new6420
2021-05-12 19:37:09K3ZGACWopsTSingle OpLP400new6420
2021-05-12 14:03:24W2TRCWopsTSingle OpHP3,249new6419
2021-05-12 14:02:31K2DMCWopsTSingle OpHP11,960new6419
2021-05-12 14:01:27K3ZGACWopsTSingle OpLP899new6419
2021-05-12 13:47:38W3USCWopsTSingle OpHP25new6419
2021-05-10 15:55:16ND4GVolta RTTYSOAB-6HP1,694,420new6411
 
2021-05-10 13:04:02N8RWArQPSOCWLP176new6413
2021-05-09 03:28:26K3ZGACQ-MSOABCWLP294new6412
2021-05-09 02:32:33K3ZGAArQPSOCWLP18new6413
2021-05-09 01:59:39W3USArQPSOCWHP2,376new6413
2021-05-06 04:04:22W3USCWopsTSingle OpHP10,100new6404
2021-05-06 03:31:55K3ZGACWopsTSingle OpLP484new6404
2021-05-05 20:05:50W3USCWopsTSingle OpHP5,538new6403
2021-05-05 19:53:27K3ZGACWopsTSingle OpLP625new6403
2021-05-05 14:08:35W3USCWopsTSingle OpHP4,154new6402
2021-05-05 14:03:08K2DMCWopsTSingle OpHP12,528new6402
 
2021-05-05 13:54:39K3ZGACWopsTSingle OpLP1,089new6402
2021-05-03 15:22:32N8RWNewEngQPSingle OpLP1,188new6397
2021-05-03 15:09:10N8RW7QPSOCWLP630new6394
2021-05-03 14:18:50N8RWInQPSingle OpLP162new6395
2021-05-03 14:11:54N0SMXCWopsTSingle OpLP36new6384
2021-05-03 13:29:24N8RWDeQPSingle OpLP240new6396
2021-05-03 01:20:46W3USInQPSingle OpHP1,160update6395
2021-05-03 01:14:01W3USNewEngQPSingle OpHP6,014new6397
2021-05-03 01:08:47W3USDeQPSingle OpHP600new6396
2021-05-03 01:06:13W3US7QPSO(A)CWHP19,140new6394
 
2021-05-02 19:27:54K3ZGANewEngQPSingle OpLP936new6397
2021-05-02 19:24:23K3ZGAInQPSingle OpLP16new6395
2021-05-02 19:22:37K3ZGADeQPSingle OpLP18new6396
2021-05-02 19:20:32K3ZGA7QPSOCWLP3,876new6394
2021-04-29 04:05:10W3USCWopsTSingle OpHP8,645new6386
2021-04-29 03:54:57K3ZGACWopsTSingle OpLP528new6386
2021-04-28 20:40:19W3GYMCWopsTSingle OpLP49new6385
2021-04-28 20:06:33W3USCWopsTSingle OpHP5,846new6385
2021-04-28 19:43:21K3ZGACWopsTSingle OpLP441new6385
2021-04-28 14:14:02W3USCWopsTSingle OpHP784new6384
 
2021-04-28 14:03:32K2DMCWopsTSingle OpHP14,500new6384
2021-04-28 14:01:56K3ZGACWopsTSingle OpLP1,089new6384
2021-04-27 14:10:56ND4GSPDX RTTYSOABHP40,608new6372
2021-04-27 14:05:34ND4GFlQPSOABCWLP546new6375
2021-04-26 19:15:15K2DMFlQPSOABMixedHP94,208new6375
2021-04-26 14:46:39N8RWFlQPSOABCWLP6,900new6375
2021-04-26 03:22:52K3ZGAFlQPSOABCWLP6,000new6375
2021-04-25 22:44:58N0SMXFlQPSOAB(A)CWHP360new6375
2021-04-25 22:12:38W3USFlQPSOABMixedLP311,808new6375
2021-04-23 21:02:19K3ZGAKRC SSTSingle OpLP60new6371
 
2021-04-23 00:37:07W3GYMCWopsTSingle OpLP64new6366
2021-04-22 04:07:25W3USCWopsTSingle OpHP8,352new6366
2021-04-22 03:37:50K3ZGACWopsTSingle OpLP441new6366
2021-04-21 20:03:02W3USCWopsTSingle OpHP4,891new6365
2021-04-21 19:58:52K3ZGACWopsTSingle OpLP1,024new6365
2021-04-21 19:32:22W2TRCWopsTSingle OpHP100new6365
2021-04-21 16:20:49K2DMCWopsTSingle OpHP17,097new6364
2021-04-21 14:05:20W3USCWopsTSingle OpHP5,624new6364
2021-04-21 13:48:37K3ZGACWopsTSingle OpLP870new6364
2021-04-19 17:02:11K3ZGACQMM DXSOABLP90new6356
 
2021-04-19 14:04:17N8RWOnQPSO CWLP266new5642
2021-04-19 00:29:15K2PSCQMM DXSOABHP62,880new6356
2021-04-19 00:22:47N8RWMiQPSingle OpLP40new6357
2021-04-18 22:29:50N0SMXCQMM DXSOABLP6,588new6356
2021-04-18 18:00:09W3USOnQPSO CWHP5,250new5642
2021-04-18 13:28:35W3USMiQPM/SHP1,428new6357
 (@W3US)
2021-04-18 01:53:04K3ZGAOnQPSO CWLP64new5642
2021-04-18 01:42:21K3ZGAMiQPSingle OpLP50new6357
2021-04-15 04:09:30W2TRCWopsTSingle OpHP5,530new6347
2021-04-15 04:06:43W3USCWopsTSingle OpHP9,696new6347
2021-04-15 03:40:36K3ZGACWopsTSingle OpLP625new